Weather History for KSLC - March, 2014

Change the Weather History Date:

Sunday, March 16, 2014

  Actual Average Record
Temperature  
Mean Temperature 52 °F 44 °F  
Max Temperature 67 °F 54 °F 74 °F (1887)
Min Temperature 37 °F 34 °F 10 °F (1963)
Degree Days  
Heating Degree Days 13 21  
Month to date heating degree days 248 372  
Since 1 July heating degree days 4235 4628  
Cooling Degree Days 0 0  
Month to date cooling degree days 0 0  
Year to date cooling degree days 0 0  
Growing Degree Days 2 (Base 50)    
Moisture  
Dew Point 22 °F    
Average Humidity 37    
Maximum Humidity 55    
Minimum Humidity 18    
Precipitation  
Precipitation 0.00 in 0.06 in 0.53 in (1975)
Month to date precipitation 0.35 0.85  
Year to date precipitation 3.12 3.35  
Snow  
Snow 0.00 in 0.20 in 5.60 in (1958)
Month to date snowfall T 3.6  
Since 1 July snowfall 35.0 49.0  
Snow Depth 0.00 in    
Sea Level Pressure  
Sea Level Pressure 30.26 in    
Wind  
Wind Speed 10 mph (SSE)    
Max Wind Speed 17 mph    
Max Gust Speed 21 mph    
Visibility 10 miles    
Events      
T = Trace of Precipitation, MM = Missing Value Source: NWS Daily Summary

Daily Weather History Graph

Daily Weather History Graph

Search for Another Location

Airport or City:

Trip Planner

Search our weather history database for the weather conditions in past years. The results will help you decide how hot, cold, wet, or windy it might be!

Date:

Astronomy

Mar. 16, 2014 Rise Set
Actual Time 7:37 AM MDT 7:35 PM MDT
Civil Twilight 7:10 AM MDT 8:03 PM MDT
Nautical Twilight 6:38 AM MDT 8:34 PM MDT
Astronomical Twilight 6:06 AM MDT 9:07 PM MDT
Moon 7:57 PM MDT (3/16) 7:23 AM MDT (3/16)
Length of Visible Light 12h 52m
Length of Day
11h 58m
Full, 100% of the Moon is Illuminated
Mar 16
Full
Mar 23
Last Quarter
Mar 30
New
Apr 7
First Quarter
Apr 15
Full

Hourly Weather History & Observations

Time (MDT) Temp. Windchill Dew Point Humidity Pressure Visibility Wind Dir Wind Speed Gust Speed Precip Events Conditions
12:53 AM 39.9 °F 37.8 °F 24.1 °F 53% 30.43 in 10.0 mi West 3.5 mph - N/A   Partly Cloudy
1:53 AM 39.0 °F 33.4 °F 21.9 °F 50% 30.43 in 10.0 mi ESE 8.1 mph - N/A   Clear
2:53 AM 39.9 °F 35.8 °F 19.0 °F 43% 30.44 in 10.0 mi ESE 5.8 mph - N/A   Clear
3:53 AM 39.0 °F 32.8 °F 19.0 °F 45% 30.43 in 10.0 mi SSE 9.2 mph - N/A   Clear
4:53 AM 37.9 °F 32.1 °F 21.0 °F 51% 30.42 in 10.0 mi SE 8.1 mph - N/A   Clear
5:53 AM 37.9 °F 31.5 °F 21.0 °F 51% 30.41 in 10.0 mi SSE 9.2 mph - N/A   Scattered Clouds
6:53 AM 39.0 °F 31.8 °F 21.9 °F 50% 30.40 in 10.0 mi SE 11.5 mph - N/A   Partly Cloudy
7:53 AM 39.9 °F 32.9 °F 23.0 °F 51% 30.41 in 10.0 mi SE 11.5 mph - N/A   Scattered Clouds
8:53 AM 44.1 °F 38.6 °F 24.1 °F 45% 30.41 in 10.0 mi SE 10.4 mph - N/A   Mostly Cloudy
9:53 AM 48.0 °F - 24.1 °F 39% 30.41 in 10.0 mi SSE 12.7 mph - N/A   Mostly Cloudy
10:53 AM 53.1 °F - 21.9 °F 30% 30.38 in 10.0 mi SSE 13.8 mph - N/A   Scattered Clouds
11:53 AM 57.0 °F - 19.0 °F 23% 30.35 in 10.0 mi SSE 15.0 mph - N/A   Mostly Cloudy
12:53 PM 60.1 °F - 19.0 °F 20% 30.32 in 10.0 mi SSE 10.4 mph - N/A   Mostly Cloudy
1:53 PM 63.0 °F - 21.0 °F 20% 30.28 in 10.0 mi South 9.2 mph - N/A   Mostly Cloudy
2:53 PM 64.0 °F - 19.9 °F 18% 30.24 in 10.0 mi SE 4.6 mph - N/A   Mostly Cloudy
3:53 PM 66.0 °F - 23.0 °F 20% 30.19 in 10.0 mi SSE 8.1 mph - N/A   Mostly Cloudy
4:53 PM 66.0 °F - 21.0 °F 18% 30.17 in 10.0 mi Variable 6.9 mph - N/A   Mostly Cloudy
5:53 PM 66.0 °F - 23.0 °F 20% 30.14 in 10.0 mi SSE 9.2 mph - N/A   Mostly Cloudy
6:53 PM 64.0 °F - 21.9 °F 20% 30.11 in 10.0 mi South 11.5 mph - N/A   Mostly Cloudy
7:53 PM 61.0 °F - 24.1 °F 24% 30.08 in 10.0 mi South 10.4 mph - N/A   Mostly Cloudy
8:53 PM 57.9 °F - 23.0 °F 26% 30.06 in 10.0 mi SSE 9.2 mph - N/A   Mostly Cloudy
9:53 PM 57.0 °F - 23.0 °F 27% 30.03 in 10.0 mi SE 10.4 mph - N/A   Mostly Cloudy
10:53 PM 55.9 °F - 23.0 °F 28% 29.98 in 10.0 mi SSE 9.2 mph - N/A   Scattered Clouds
11:53 PM 53.1 °F - 24.1 °F 32% 29.94 in 10.0 mi SSE 8.1 mph - N/A   Scattered Clouds